STARLINK-1394, 45679

Orbit data source: Space-Track

STARLINK-1394, 45679 is a payload satellite owned by SpaceX/Seattle (US) in LEO that was launched on Thu, 04 Jun 2020 UTC via an FALCON 9 launch vehicle from the Air Force Eastern Test Range (AFETR). Payload-class satellites include a variety of spacecraft equipped with specific instruments for various scientific and technological missions. These include communications satellites like Starlink; space stations such as the ISS; scientific satellites like the Hubble; Earth observation satellites from companies like Planet Labs, Umbra, and HawkEye 360; GPS; miniature CubeSats for education and research; and military/defense satellites.

Loading next visibility...
Identifier
45679, 2020-035Y
Orbit
LEO
Country
Flag of USUS
Related business
Manufacturer
SpaceX/Seattle
Mission
Partially operational Commercial Communications
Bus & Motor
STARLINK, Unknown motor
Mass
260 kg wet, ~248 kg dry
Launch date (UTC)
2020-06-04 (6 years ago)
Launch vehicle
FALCON 9
Launch site
Air Force Eastern Test Range (AFETR)
Object type
Payload
Rocket body
Debris
Shape & HBR
Box + 1 Pan, 10.1 m
Radar Cross Section
13.562 m², Large (>1 m²)

Expand to show TLE details & history
Last TLE update: 15 hours ago

TLE from 15 hours ago
0 STARLINK-1394
1 45679U 20035Y   26169.98675427  .00308566  00000-0  27687-2 0  9993
2 45679  53.0394 264.0030 0001224 134.5217 225.5899 15.66793526334958
Epoch: 2026-06-18T23:40Z
TLE epoch observation values (Epoch: 2026-06-18T23:40:55.568Z)
Latitude
0.00002°
Longitude
1.54927°
Altitude
369.564 km
Speed
7.689 km/s
True Right ascension
17h 36m 00s
True Declination
0° 00' 00"
Sunlit
Object was in full shadow at epoch
Visualization orbit readout
Latitude
Unknown
Longitude
Unknown
Altitude
Unknown
Speed
Unknown
Apparent Right ascension
Unknown
Apparent Declination
Unknown
Sunlit
N/A
Visualization observer readout
Local Sidereal Time
01:12:46
Azimuth
Unknown
Elevation
Unknown
Doppler factor
Unknown
Orbital elements
Apogee altitude
369.191 km
Perigee altitude
367.54 km
Semi-major axis
6,746.503 km
Eccentricity
0.00012
Inclination
53.0394°
RAAN
264.003°
Arg. of periapsis
134.5217°
True anomaly
225.57988°
Mean anomaly
225.5899°
Eccentric anomaly
225.58489°
Mean motion
3.91674 °/min
Orbital period
91.91 mins
BSTAR
0.0027687
Loading maneuver chart data...
Computing Atmospheric mass density...

Documentation

Showing up to 5 results
|